Time,TemperatureF,DewpointF,PressureIn,WindDirection,WindDirectionDegrees,WindSpeedMPH,WindSpeedGustMPH,Humidity,HourlyPrecipIn,Conditions,Clouds,dailyrainin,SolarRadiationWatts/m^2,SoftwareType,DateUTC
2013-05-18 00:00:00,71.4,61.9,30.11,South,179,0.5,1.1,72,0.00,CLR,OVC,0.00,0.0,WeatherDisplay:10.37,2013-05-18 04:00:00,
2013-05-18 00:01:00,71.4,61.9,30.11,SW,223,0.4,2.3,72,0.00,CLR,OVC,0.00,0.0,WeatherDisplay:10.37,2013-05-18 04:01:00,
2013-05-18 00:06:00,71.3,61.8,30.11,South,184,0.3,3.5,72,0.00,CLR,OVC,0.00,0.0,WeatherDisplay:10.37,2013-05-18 04:06:00,
2013-05-18 00:11:00,71.3,61.8,30.11,SW,222,1.9,3.5,72,0.00,CLR,OVC,0.00,0.0,WeatherDisplay:10.37,2013-05-18 04:11:00,
2013-05-18 00:16:00,71.3,61.8,30.11,South,173,1.5,3.5,72,0.00,CLR,OVC,0.00,0.0,WeatherDisplay:10.37,2013-05-18 04:16:00,
2013-05-18 00:21:00,71.2,62.1,30.11,SW,224,1.0,4.6,73,0.00,CLR,OVC,0.00,0.0,WeatherDisplay:10.37,2013-05-18 04:21:00,
2013-05-18 00:26:00,71.2,62.1,30.11,SW,231,1.3,3.0,73,0.00,CLR,OVC,0.00,0.0,WeatherDisplay:10.37,2013-05-18 04:26:00,
2013-05-18 00:31:00,71.1,62.0,30.11,SSE,167,0.0,0.0,73,0.00,CLR,OVC,0.00,0.0,WeatherDisplay:10.37,2013-05-18 04:31:00,
2013-05-18 00:36:00,71.1,62.4,30.11,West,266,1.1,3.5,74,0.00,CLR,OVC,0.00,0.0,WeatherDisplay:10.37,2013-05-18 04:36:00,
2013-05-18 00:41:00,71.1,62.4,30.11,WSW,242,0.0,2.3,74,0.00,CLR,OVC,0.00,0.0,WeatherDisplay:10.37,2013-05-18 04:41:00,
2013-05-18 00:46:00,71.0,62.7,30.11,SW,225,1.0,3.5,75,0.00,CLR,OVC,0.00,0.0,WeatherDisplay:10.37,2013-05-18 04:46:00,
2013-05-18 00:51:00,71.0,62.7,30.11,SSW,207,1.1,3.5,75,0.00,CLR,OVC,0.00,0.0,WeatherDisplay:10.37,2013-05-18 04:51:00,
2013-05-18 00:56:00,71.0,62.7,30.11,SW,225,0.1,0.0,75,0.00,CLR,OVC,0.00,0.0,WeatherDisplay:10.37,2013-05-18 04:56:00,
2013-05-18 01:01:00,70.9,63.0,30.11,SW,219,0.5,3.5,76,0.00,CLR,OVC,0.00,0.0,WeatherDisplay:10.37,2013-05-18 05:01:00,
2013-05-18 01:06:00,70.9,63.0,30.11,SSW,209,1.0,3.5,76,0.00,CLR,OVC,0.00,0.0,WeatherDisplay:10.37,2013-05-18 05:06:00,
2013-05-18 01:11:00,70.9,63.3,30.11,SSW,210,1.3,5.8,77,0.00,CLR,OVC,0.00,0.0,WeatherDisplay:10.37,2013-05-18 05:11:00,
2013-05-18 01:16:00,70.9,63.3,30.11,SW,224,1.3,3.5,77,0.00,CLR,OVC,0.00,0.0,WeatherDisplay:10.37,2013-05-18 05:16:00,
2013-05-18 01:21:00,70.8,63.2,30.11,SW,223,0.0,1.1,77,0.00,CLR,OVC,0.00,0.0,WeatherDisplay:10.37,2013-05-18 05:21:00,
2013-05-18 01:26:00,70.7,63.1,30.11,SSW,207,0.0,1.1,77,0.00,CLR,OVC,0.00,0.0,WeatherDisplay:10.37,2013-05-18 05:26:00,
2013-05-18 01:31:00,70.6,63.4,30.11,SSW,208,0.0,1.1,78,0.00,CLR,OVC,0.00,0.0,WeatherDisplay:10.37,2013-05-18 05:31:00,
2013-05-18 01:36:00,70.5,63.7,30.11,SW,226,2.4,3.5,79,0.00,CLR,OVC,0.00,0.0,WeatherDisplay:10.37,2013-05-18 05:36:00,
2013-05-18 01:41:00,70.4,63.6,30.11,SW,223,0.0,1.0,79,0.00,CLR,OVC,0.00,0.0,WeatherDisplay:10.37,2013-05-18 05:41:00,
2013-05-18 01:46:00,70.4,63.9,30.10,WSW,245,0.2,1.1,80,0.00,CLR,OVC,0.00,0.0,WeatherDisplay:10.37,2013-05-18 05:46:00,
2013-05-18 01:51:00,70.3,63.8,30.11,SW,223,0.3,1.1,80,0.00,CLR,OVC,0.00,0.0,WeatherDisplay:10.37,2013-05-18 05:51:00,
2013-05-18 01:56:00,70.2,64.1,30.11,SW,229,1.4,2.0,81,0.00,CLR,OVC,0.00,0.0,WeatherDisplay:10.37,2013-05-18 05:56:00,
2013-05-18 02:01:00,70.2,64.1,30.11,SSW,209,1.3,3.5,81,0.00,CLR,OVC,0.00,0.0,WeatherDisplay:10.37,2013-05-18 06:01:00,
2013-05-18 02:06:00,70.1,64.0,30.11,SW,231,1.2,3.5,81,0.00,CLR,OVC,0.00,0.0,WeatherDisplay:10.37,2013-05-18 06:06:00,
2013-05-18 02:11:00,70.1,64.3,30.11,SW,224,0.6,1.1,82,0.00,CLR,OVC,0.00,0.0,WeatherDisplay:10.37,2013-05-18 06:11:00,
2013-05-18 02:16:00,70.0,64.2,30.11,South,188,0.7,2.3,82,0.00,CLR,OVC,0.00,0.0,WeatherDisplay:10.37,2013-05-18 06:16:00,
2013-05-18 02:21:00,69.9,64.5,30.11,South,190,1.7,4.6,83,0.00,CLR,OVC,0.00,0.0,WeatherDisplay:10.37,2013-05-18 06:21:00,
2013-05-18 02:26:00,69.9,64.5,30.11,SSW,201,1.4,4.0,83,0.00,CLR,OVC,0.00,0.0,WeatherDisplay:10.37,2013-05-18 06:26:00,
2013-05-18 02:31:00,69.9,64.5,30.11,South,173,0.9,4.6,83,0.00,CLR,OVC,0.00,0.0,WeatherDisplay:10.37,2013-05-18 06:31:00,
2013-05-18 02:36:00,69.8,64.7,30.11,SW,223,0.9,2.3,84,0.00,CLR,OVC,0.00,0.0,WeatherDisplay:10.37,2013-05-18 06:36:00,
2013-05-18 02:41:00,69.9,64.8,30.11,SW,223,2.0,3.5,84,0.00,CLR,OVC,0.00,0.0,WeatherDisplay:10.37,2013-05-18 06:41:00,
2013-05-18 02:46:00,69.9,64.8,30.11,WSW,244,1.0,3.5,84,0.00,CLR,OVC,0.00,0.0,WeatherDisplay:10.37,2013-05-18 06:46:00,
2013-05-18 02:51:00,70.0,64.9,30.11,SW,216,1.4,3.5,84,0.00,CLR,OVC,0.00,0.0,WeatherDisplay:10.37,2013-05-18 06:51:00,
2013-05-18 02:56:00,69.9,64.8,30.11,SSW,203,0.4,3.5,84,0.00,CLR,OVC,0.00,0.0,WeatherDisplay:10.37,2013-05-18 06:56:00,
2013-05-18 03:01:00,69.9,64.8,30.11,SSW,200,0.0,2.0,84,0.00,CLR,OVC,0.00,0.0,WeatherDisplay:10.37,2013-05-18 07:01:00,
2013-05-18 03:07:00,69.9,65.2,30.11,SSW,213,0.2,1.1,85,0.00,CLR,OVC,0.00,0.0,WeatherDisplay:10.37,2013-05-18 07:07:00,
2013-05-18 03:12:00,69.9,64.8,30.11,SW,221,1.7,3.5,84,0.00,CLR,OVC,0.00,0.0,WeatherDisplay:10.37,2013-05-18 07:12:00,
2013-05-18 03:17:00,69.8,65.1,30.11,SW,219,0.5,2.3,85,0.00,CLR,OVC,0.00,0.0,WeatherDisplay:10.37,2013-05-18 07:17:00,
2013-05-18 03:22:00,69.8,65.1,30.11,SW,219,0.9,2.3,85,0.00,CLR,OVC,0.00,0.0,WeatherDisplay:10.37,2013-05-18 07:22:00,
2013-05-18 03:27:00,69.7,65.0,30.11,WSW,246,0.4,1.1,85,0.00,CLR,OVC,0.00,0.0,WeatherDisplay:10.37,2013-05-18 07:27:00,
2013-05-18 03:32:00,69.6,64.9,30.11,SW,226,0.6,2.3,85,0.00,CLR,OVC,0.00,0.0,WeatherDisplay:10.37,2013-05-18 07:32:00,
2013-05-18 03:37:00,69.5,64.8,30.11,SW,228,2.1,3.5,85,0.00,CLR,OVC,0.00,0.0,WeatherDisplay:10.37,2013-05-18 07:37:00,
2013-05-18 03:42:00,69.5,64.8,30.11,WSW,238,2.0,4.6,85,0.00,CLR,OVC,0.00,0.0,WeatherDisplay:10.37,2013-05-18 07:42:00,
2013-05-18 03:47:00,69.5,64.8,30.11,SSW,209,1.7,3.5,85,0.00,CLR,OVC,0.00,0.0,WeatherDisplay:10.37,2013-05-18 07:47:00,
2013-05-18 03:52:00,69.5,64.8,30.11,SW,217,1.0,3.5,85,0.00,CLR,OVC,0.00,0.0,WeatherDisplay:10.37,2013-05-18 07:52:00,
2013-05-18 03:57:00,69.6,64.9,30.11,SW,231,1.5,3.5,85,0.00,CLR,OVC,0.00,0.0,WeatherDisplay:10.37,2013-05-18 07:57:00,
2013-05-18 04:02:00,69.7,65.0,30.11,SW,223,1.7,3.5,85,0.00,CLR,OVC,0.00,0.0,WeatherDisplay:10.37,2013-05-18 08:02:00,
2013-05-18 04:07:00,69.6,64.9,30.11,SW,219,0.5,2.3,85,0.00,CLR,OVC,0.00,0.0,WeatherDisplay:10.37,2013-05-18 08:07:00,
2013-05-18 04:12:00,69.6,64.9,30.11,SW,221,1.3,3.0,85,0.00,CLR,OVC,0.00,0.0,WeatherDisplay:10.37,2013-05-18 08:12:00,
2013-05-18 04:17:00,69.5,64.8,30.11,WSW,240,0.7,3.5,85,0.00,CLR,OVC,0.00,0.0,WeatherDisplay:10.37,2013-05-18 08:17:00,
2013-05-18 04:22:00,69.5,65.1,30.11,SSW,201,0.8,3.5,86,0.00,CLR,OVC,0.00,0.0,WeatherDisplay:10.37,2013-05-18 08:22:00,
2013-05-18 04:27:00,69.4,65.0,30.11,SSW,204,1.5,3.5,86,0.00,CLR,OVC,0.00,0.0,WeatherDisplay:10.37,2013-05-18 08:27:00,
2013-05-18 04:32:00,69.3,64.9,30.11,SW,225,0.0,1.1,86,0.00,CLR,OVC,0.00,0.0,WeatherDisplay:10.37,2013-05-18 08:32:00,
2013-05-18 04:37:00,69.2,64.8,30.11,SW,229,0.2,1.1,86,0.00,CLR,OVC,0.00,0.0,WeatherDisplay:10.37,2013-05-18 08:37:00,
2013-05-18 04:42:00,69.2,64.8,30.11,South,170,0.1,1.1,86,0.00,CLR,OVC,0.00,0.0,WeatherDisplay:10.37,2013-05-18 08:42:00,
2013-05-18 04:47:00,69.0,64.6,30.12,South,170,0.0,0.0,86,0.00,CLR,OVC,0.00,0.0,WeatherDisplay:10.37,2013-05-18 08:47:00,
2013-05-18 04:52:00,69.0,65.0,30.12,SSE,152,0.0,1.1,87,0.00,CLR,OVC,0.00,0.0,WeatherDisplay:10.37,2013-05-18 08:52:00,
2013-05-18 04:57:00,68.8,64.8,30.12,SSE,152,0.0,0.0,87,0.00,CLR,OVC,0.00,0.0,WeatherDisplay:10.37,2013-05-18 08:57:00,
2013-05-18 05:02:00,68.7,64.7,30.12,SSE,152,0.0,0.0,87,0.00,CLR,OVC,0.00,0.0,WeatherDisplay:10.37,2013-05-18 09:02:00,
2013-05-18 05:07:00,68.5,64.5,30.12,SSE,152,0.0,0.0,87,0.00,CLR,OVC,0.00,0.0,WeatherDisplay:10.37,2013-05-18 09:07:00,
2013-05-18 05:12:00,68.4,64.4,30.12,SSE,152,0.5,2.3,87,0.00,CLR,OVC,0.00,0.0,WeatherDisplay:10.37,2013-05-18 09:12:00,
2013-05-18 05:17:00,68.1,64.4,30.12,SSE,152,0.0,0.0,88,0.00,CLR,OVC,0.00,0.0,WeatherDisplay:10.37,2013-05-18 09:17:00,
2013-05-18 05:22:00,67.9,64.2,30.12,SSE,152,0.0,0.0,88,0.00,CLR,OVC,0.00,0.0,WeatherDisplay:10.37,2013-05-18 09:22:00,
2013-05-18 05:27:00,67.7,64.3,30.12,SSE,152,0.0,0.0,89,0.00,CLR,OVC,0.00,0.0,WeatherDisplay:10.37,2013-05-18 09:27:00,
2013-05-18 05:32:00,67.6,64.2,30.12,SSE,152,0.0,0.0,89,0.00,CLR,OVC,0.00,0.0,WeatherDisplay:10.37,2013-05-18 09:32:00,
2013-05-18 05:37:00,67.3,63.9,30.12,SSE,152,0.0,0.0,89,0.00,CLR,OVC,0.00,0.0,WeatherDisplay:10.37,2013-05-18 09:37:00,
2013-05-18 05:42:00,67.1,63.7,30.13,SSE,152,0.0,0.0,89,0.00,CLR,OVC,0.00,0.0,WeatherDisplay:10.37,2013-05-18 09:42:00,
2013-05-18 05:47:00,67.0,63.6,30.13,SSE,152,0.0,0.0,89,0.00,CLR,OVC,0.00,0.0,WeatherDisplay:10.37,2013-05-18 09:47:00,
2013-05-18 05:52:00,66.8,63.8,30.13,SSE,152,0.0,0.0,90,0.00,CLR,OVC,0.00,0.0,WeatherDisplay:10.37,2013-05-18 09:52:00,
2013-05-18 05:57:00,66.6,63.6,30.13,SSE,152,0.0,0.0,90,0.00,CLR,OVC,0.00,0.0,WeatherDisplay:10.37,2013-05-18 09:57:00,
2013-05-18 06:02:00,66.4,63.4,30.13,SSE,152,0.0,0.0,90,0.00,OVC,,0.00,0.0,WeatherDisplay:10.37,2013-05-18 10:02:00,
2013-05-18 06:07:00,66.2,63.5,30.14,SSE,152,0.0,0.0,91,0.00,OVC,,0.00,0.0,WeatherDisplay:10.37,2013-05-18 10:07:00,
2013-05-18 06:12:00,66.1,63.4,30.14,SSE,152,0.0,0.0,91,0.00,OVC,,0.00,0.0,WeatherDisplay:10.37,2013-05-18 10:12:00,
2013-05-18 06:17:00,66.1,63.7,30.14,SSE,152,0.0,0.0,92,0.00,OVC,,0.00,0.0,WeatherDisplay:10.37,2013-05-18 10:17:00,
2013-05-18 06:22:00,66.0,63.9,30.13,SSE,152,0.0,0.0,93,0.00,OVC,,0.00,0.0,WeatherDisplay:10.37,2013-05-18 10:22:00,
2013-05-18 06:27:00,66.0,63.9,30.14,SSE,152,0.0,0.0,93,0.00,OVC,,0.00,0.0,WeatherDisplay:10.37,2013-05-18 10:27:00,
2013-05-18 06:32:00,66.1,64.0,30.14,SSE,152,0.0,0.0,93,0.00,OVC,,0.00,0.0,WeatherDisplay:10.37,2013-05-18 10:32:00,
2013-05-18 06:37:00,66.1,64.3,30.14,SSE,152,0.0,0.0,94,0.00,OVC,,0.00,0.0,WeatherDisplay:10.37,2013-05-18 10:37:00,
2013-05-18 06:42:00,66.3,64.5,30.14,SSE,152,0.0,0.0,94,0.00,OVC,,0.00,0.0,WeatherDisplay:10.37,2013-05-18 10:42:00,
2013-05-18 06:47:00,66.5,64.7,30.15,SSE,152,0.0,0.0,94,0.00,OVC,,0.00,0.0,WeatherDisplay:10.37,2013-05-18 10:47:00,
2013-05-18 06:52:00,66.7,64.9,30.15,SSE,157,0.0,0.0,94,0.00,OVC,,0.00,0.0,WeatherDisplay:10.37,2013-05-18 10:52:00,
2013-05-18 06:57:00,67.0,65.5,30.15,SSE,157,0.0,0.0,95,0.00,OVC,,0.00,0.0,WeatherDisplay:10.37,2013-05-18 10:57:00,
2013-05-18 07:02:00,67.5,66.0,30.15,SSE,157,0.1,0.0,95,0.00,OVC,,0.00,0.0,WeatherDisplay:10.37,2013-05-18 11:02:00,
2013-05-18 07:07:00,68.0,66.5,30.15,SSE,160,0.5,1.1,95,0.00,OVC,,0.00,0.0,WeatherDisplay:10.37,2013-05-18 11:07:00,
2013-05-18 07:12:00,68.5,67.0,30.15,SSE,166,0.3,1.0,95,0.00,OVC,,0.00,0.0,WeatherDisplay:10.37,2013-05-18 11:12:00,
2013-05-18 07:17:00,69.0,67.5,30.15,SSE,156,1.8,3.5,95,0.00,OVC,,0.00,0.0,WeatherDisplay:10.37,2013-05-18 11:17:00,
2013-05-18 07:22:00,69.5,67.7,30.15,NNW,344,0.4,1.1,94,0.00,OVC,,0.00,0.0,WeatherDisplay:10.37,2013-05-18 11:22:00,
2013-05-18 07:27:00,69.8,67.7,30.14,NNW,344,0.0,1.1,93,0.00,OVC,,0.00,0.0,WeatherDisplay:10.37,2013-05-18 11:27:00,
2013-05-18 07:32:00,70.4,68.3,30.14,NNW,344,0.1,1.1,93,0.00,OVC,,0.00,0.0,WeatherDisplay:10.37,2013-05-18 11:32:00,
2013-05-18 07:37:00,71.0,68.6,30.14,WNW,283,0.2,1.1,92,0.00,OVC,,0.00,0.0,WeatherDisplay:10.37,2013-05-18 11:37:00,
2013-05-18 07:42:00,71.6,68.5,30.14,SSE,157,1.7,3.5,90,0.00,OVC,,0.00,0.0,WeatherDisplay:10.37,2013-05-18 11:42:00,
2013-05-18 07:47:00,72.0,68.6,30.15,SSW,192,0.5,3.5,89,0.00,OVC,,0.00,0.0,WeatherDisplay:10.37,2013-05-18 11:47:00,
2013-05-18 07:52:00,72.3,68.5,30.15,SSW,198,0.3,1.1,88,0.00,OVC,,0.00,0.0,WeatherDisplay:10.37,2013-05-18 11:52:00,
2013-05-18 07:57:00,72.6,68.8,30.15,SSW,202,1.1,3.5,88,0.00,OVC,,0.00,0.0,WeatherDisplay:10.37,2013-05-18 11:57:00,
2013-05-18 08:02:00,72.9,68.8,30.15,South,188,1.0,3.5,87,0.00,OVC,,0.00,0.0,WeatherDisplay:10.37,2013-05-18 12:02:00,
2013-05-18 08:07:00,73.4,69.0,30.15,SSE,166,0.2,2.3,86,0.00,OVC,,0.00,0.0,WeatherDisplay:10.37,2013-05-18 12:07:00,
2013-05-18 08:12:00,74.0,69.2,30.15,SE,140,0.1,3.5,85,0.00,OVC,,0.00,0.0,WeatherDisplay:10.37,2013-05-18 12:12:00,
2013-05-18 08:17:00,74.6,69.4,30.15,South,180,0.9,0.0,84,0.00,OVC,,0.00,0.0,WeatherDisplay:10.37,2013-05-18 12:17:00,
2013-05-18 08:22:00,75.1,69.6,30.16,South,172,2.7,4.6,83,0.00,OVC,,0.00,0.0,WeatherDisplay:10.37,2013-05-18 12:22:00,
2013-05-18 08:27:00,75.4,69.9,30.15,South,180,2.8,4.0,83,0.00,OVC,,0.00,0.0,WeatherDisplay:10.37,2013-05-18 12:27:00,
2013-05-18 08:32:00,75.3,69.4,30.15,South,186,0.1,1.1,82,0.00,OVC,,0.00,0.0,WeatherDisplay:10.37,2013-05-18 12:32:00,
2013-05-18 08:37:00,75.4,69.5,30.15,SW,229,1.1,5.8,82,0.00,OVC,,0.00,0.0,WeatherDisplay:10.37,2013-05-18 12:37:00,
2013-05-18 08:42:00,75.7,69.8,30.16,SW,215,0.5,3.5,82,0.00,OVC,,0.00,0.0,WeatherDisplay:10.37,2013-05-18 12:42:00,
2013-05-18 08:47:00,75.9,70.0,30.16,SSE,157,0.3,2.3,82,0.00,OVC,,0.00,0.0,WeatherDisplay:10.37,2013-05-18 12:47:00,
2013-05-18 08:52:00,76.2,70.3,30.16,SSE,155,1.6,4.6,82,0.00,OVC,,0.00,0.0,WeatherDisplay:10.37,2013-05-18 12:52:00,
2013-05-18 08:57:00,76.6,70.0,30.16,SW,217,2.4,4.6,80,0.00,OVC,,0.00,0.0,WeatherDisplay:10.37,2013-05-18 12:57:00,
2013-05-18 09:02:00,77.0,70.4,30.16,SW,222,3.0,5.0,80,0.00,OVC,,0.00,0.0,WeatherDisplay:10.37,2013-05-18 13:02:00,
2013-05-18 09:07:00,77.0,70.0,30.16,SSE,161,2.7,5.8,79,0.00,OVC,,0.00,0.0,WeatherDisplay:10.37,2013-05-18 13:07:00,
2013-05-18 09:13:00,77.0,70.0,30.16,SSW,208,1.6,3.5,79,0.00,OVC,,0.00,0.0,WeatherDisplay:10.37,2013-05-18 13:13:00,
2013-05-18 09:18:00,77.0,69.6,30.16,SSW,196,4.2,5.8,78,0.00,OVC,,0.00,0.0,WeatherDisplay:10.37,2013-05-18 13:18:00,
2013-05-18 09:23:00,77.2,69.8,30.16,South,180,2.8,5.8,78,0.00,OVC,,0.00,0.0,WeatherDisplay:10.37,2013-05-18 13:23:00,
2013-05-18 09:28:00,77.6,70.2,30.16,SSE,161,3.7,6.0,78,0.00,OVC,,0.00,0.0,WeatherDisplay:10.37,2013-05-18 13:28:00,
2013-05-18 09:33:00,78.0,69.8,30.16,SSW,192,5.9,10.4,76,0.00,OVC,,0.00,0.0,WeatherDisplay:10.37,2013-05-18 13:33:00,
2013-05-18 09:38:00,77.8,69.6,30.16,SE,140,3.6,4.6,76,0.00,OVC,,0.00,0.0,WeatherDisplay:10.37,2013-05-18 13:38:00,
2013-05-18 09:43:00,77.8,69.6,30.16,South,175,5.0,10.4,76,0.00,OVC,,0.00,0.0,WeatherDisplay:10.37,2013-05-18 13:43:00,
2013-05-18 09:48:00,77.6,69.8,30.17,SW,214,4.2,6.9,77,0.00,OVC,,0.00,0.0,WeatherDisplay:10.37,2013-05-18 13:48:00,
2013-05-18 09:53:00,77.6,69.8,30.16,SSW,200,4.1,8.1,77,0.00,OVC,,0.00,0.0,WeatherDisplay:10.37,2013-05-18 13:53:00,
2013-05-18 09:58:00,77.8,70.4,30.16,SE,136,4.4,6.9,78,0.00,OVC,,0.00,0.0,WeatherDisplay:10.37,2013-05-18 13:58:00,
2013-05-18 10:03:00,78.0,69.4,30.16,South,180,3.6,7.0,75,0.00,OVC,,0.00,0.0,WeatherDisplay:10.37,2013-05-18 14:03:00,
2013-05-18 10:08:00,78.1,68.3,30.16,SSW,192,5.3,8.1,72,0.00,OVC,,0.00,0.0,WeatherDisplay:10.37,2013-05-18 14:08:00,
2013-05-18 10:13:00,78.4,69.4,30.16,South,169,3.5,7.0,74,0.00,OVC,,0.00,0.0,WeatherDisplay:10.37,2013-05-18 14:13:00,
2013-05-18 10:18:00,78.8,69.4,30.16,SSW,202,5.9,9.2,73,0.00,OVC,,0.00,0.0,WeatherDisplay:10.37,2013-05-18 14:18:00,
2013-05-18 10:23:00,78.7,69.7,30.15,South,169,5.5,9.2,74,0.00,OVC,,0.00,0.0,WeatherDisplay:10.37,2013-05-18 14:23:00,
2013-05-18 10:28:00,78.7,69.7,30.15,South,190,0.5,2.3,74,0.00,OVC,,0.00,0.0,WeatherDisplay:10.37,2013-05-18 14:28:00,
2013-05-18 10:33:00,78.9,69.5,30.15,SSW,202,1.7,4.6,73,0.00,OVC,,0.00,0.0,WeatherDisplay:10.37,2013-05-18 14:33:00,
2013-05-18 10:38:00,79.4,69.6,30.14,SSW,209,4.3,8.1,72,0.00,OVC,,0.00,0.0,WeatherDisplay:10.37,2013-05-18 14:38:00,
2013-05-18 10:43:00,79.8,70.0,30.14,SSE,164,4.2,5.8,72,0.00,OVC,,0.00,0.0,WeatherDisplay:10.37,2013-05-18 14:43:00,
2013-05-18 10:48:00,79.9,69.7,30.14,SSE,147,2.5,5.8,71,0.00,OVC,,0.00,0.0,WeatherDisplay:10.37,2013-05-18 14:48:00,
2013-05-18 10:53:00,79.9,69.7,30.15,East,90,1.5,3.5,71,0.00,OVC,,0.00,0.0,WeatherDisplay:10.37,2013-05-18 14:53:00,
2013-05-18 10:58:00,79.9,69.7,30.15,SSW,194,1.8,3.5,71,0.00,OVC,,0.00,0.0,WeatherDisplay:10.37,2013-05-18 14:58:00,
2013-05-18 11:03:00,79.9,69.7,30.16,WSW,251,2.6,4.6,71,0.00,OVC,,0.00,0.0,WeatherDisplay:10.37,2013-05-18 15:03:00,
2013-05-18 11:08:00,79.6,69.4,30.16,South,189,2.4,4.6,71,0.00,OVC,,0.00,0.0,WeatherDisplay:10.37,2013-05-18 15:08:00,
2013-05-18 11:13:00,79.3,69.1,30.17,SSW,211,1.5,3.5,71,0.00,OVC,,0.00,0.0,WeatherDisplay:10.37,2013-05-18 15:13:00,
2013-05-18 11:18:00,79.2,69.4,30.17,SSW,211,1.0,4.0,72,0.00,OVC,,0.00,0.0,WeatherDisplay:10.37,2013-05-18 15:18:00,
2013-05-18 11:23:00,79.3,69.9,30.17,South,181,1.5,3.5,73,0.00,OVC,,0.00,0.0,WeatherDisplay:10.37,2013-05-18 15:23:00,
2013-05-18 11:28:00,79.3,70.7,30.17,South,170,2.7,3.5,75,0.00,OVC,,0.00,0.0,WeatherDisplay:10.37,2013-05-18 15:28:00,
2013-05-18 11:33:00,79.5,70.9,30.17,South,178,2.1,5.8,75,0.00,OVC,,0.00,0.0,WeatherDisplay:10.37,2013-05-18 15:33:00,
2013-05-18 11:38:00,80.0,71.4,30.17,SE,133,4.2,7.0,75,0.00,OVC,,0.00,0.0,WeatherDisplay:10.37,2013-05-18 15:38:00,
2013-05-18 11:43:00,80.6,71.9,30.16,South,179,3.5,8.0,75,0.00,OVC,,0.00,0.0,WeatherDisplay:10.37,2013-05-18 15:43:00,
2013-05-18 11:48:00,81.1,71.2,30.16,ESE,107,3.8,4.6,72,0.00,OVC,,0.00,0.0,WeatherDisplay:10.37,2013-05-18 15:48:00,
2013-05-18 11:53:00,81.2,71.3,30.16,ESE,117,5.1,7.0,72,0.00,OVC,,0.00,0.0,WeatherDisplay:10.37,2013-05-18 15:53:00,
2013-05-18 11:58:00,81.0,71.5,30.16,ESE,112,4.3,8.1,73,0.00,OVC,,0.00,0.0,WeatherDisplay:10.37,2013-05-18 15:58:00,
2013-05-18 12:03:00,81.5,71.6,30.16,SSE,166,2.2,5.8,72,0.00,OVC,,0.00,0.0,WeatherDisplay:10.37,2013-05-18 16:03:00,
2013-05-18 12:08:00,81.5,70.8,30.16,SE,144,4.8,11.5,70,0.00,OVC,,0.00,0.0,WeatherDisplay:10.37,2013-05-18 16:08:00,
2013-05-18 12:13:00,81.0,70.7,30.15,East,86,3.1,6.9,71,0.00,OVC,,0.00,0.0,WeatherDisplay:10.37,2013-05-18 16:13:00,
2013-05-18 12:18:00,80.3,70.0,30.15,ESE,111,7.0,9.2,71,0.00,OVC,,0.00,0.0,WeatherDisplay:10.37,2013-05-18 16:18:00,
2013-05-18 12:23:00,79.9,70.5,30.15,East,99,2.8,6.9,73,0.00,OVC,,0.00,0.0,WeatherDisplay:10.37,2013-05-18 16:23:00,
2013-05-18 12:28:00,80.4,71.3,30.15,SE,131,2.9,4.6,74,0.00,OVC,,0.00,0.0,WeatherDisplay:10.37,2013-05-18 16:28:00,
2013-05-18 12:33:00,81.2,71.3,30.15,SSW,208,0.6,3.5,72,0.00,OVC,,0.00,0.0,WeatherDisplay:10.37,2013-05-18 16:33:00,
2013-05-18 12:38:00,82.1,71.8,30.14,SE,140,3.7,4.0,71,0.00,OVC,,0.00,0.0,WeatherDisplay:10.37,2013-05-18 16:38:00,
2013-05-18 12:43:00,82.5,71.3,30.14,East,86,5.9,10.4,69,0.00,OVC,,0.00,0.0,WeatherDisplay:10.37,2013-05-18 16:43:00,
2013-05-18 12:48:00,82.5,71.3,30.14,SSE,150,5.0,10.4,69,0.00,OVC,,0.00,0.0,WeatherDisplay:10.37,2013-05-18 16:48:00,
2013-05-18 12:53:00,82.1,70.5,30.14,SSW,204,6.3,8.1,68,0.00,OVC,,0.00,0.0,WeatherDisplay:10.37,2013-05-18 16:53:00,
2013-05-18 12:58:00,81.8,70.6,30.14,SSE,168,4.4,9.2,69,0.00,OVC,,0.00,0.0,WeatherDisplay:10.37,2013-05-18 16:58:00,
2013-05-18 13:03:00,81.9,70.7,30.14,SSE,161,5.4,9.2,69,0.00,OVC,,0.00,0.0,WeatherDisplay:10.37,2013-05-18 17:03:00,
2013-05-18 13:08:00,81.7,70.1,30.14,East,101,3.3,8.1,68,0.00,OVC,,0.00,0.0,WeatherDisplay:10.37,2013-05-18 17:08:00,
2013-05-18 13:13:00,81.7,70.1,30.14,ESE,115,9.9,12.0,68,0.00,OVC,,0.00,0.0,WeatherDisplay:10.37,2013-05-18 17:13:00,
2013-05-18 13:18:00,81.5,69.9,30.14,ENE,75,5.2,8.0,68,0.00,OVC,,0.00,0.0,WeatherDisplay:10.37,2013-05-18 17:18:00,
2013-05-18 13:23:00,81.7,70.1,30.14,SSE,150,6.1,11.5,68,0.00,OVC,,0.00,0.0,WeatherDisplay:10.37,2013-05-18 17:23:00,
2013-05-18 13:28:00,82.3,70.2,30.14,South,178,4.5,9.2,67,0.00,OVC,,0.00,0.0,WeatherDisplay:10.37,2013-05-18 17:28:00,
2013-05-18 13:33:00,82.6,69.6,30.14,ESE,117,5.4,11.5,65,0.00,OVC,,0.00,0.0,WeatherDisplay:10.37,2013-05-18 17:33:00,
2013-05-18 13:38:00,82.0,69.5,30.13,ESE,116,4.1,10.4,66,0.00,OVC,,0.00,0.0,WeatherDisplay:10.37,2013-05-18 17:38:00,
2013-05-18 13:43:00,82.1,69.6,30.13,East,92,5.4,9.2,66,0.00,OVC,,0.00,0.0,WeatherDisplay:10.37,2013-05-18 17:43:00,
2013-05-18 13:48:00,82.1,70.1,30.13,East,91,3.5,8.1,67,0.00,OVC,,0.00,0.0,WeatherDisplay:10.37,2013-05-18 17:48:00,
2013-05-18 13:53:00,81.8,69.8,30.13,SE,125,5.7,8.1,67,0.00,OVC,,0.00,0.0,WeatherDisplay:10.37,2013-05-18 17:53:00,
2013-05-18 13:58:00,82.0,70.0,30.13,SSE,168,4.1,6.9,67,0.00,OVC,,0.00,0.0,WeatherDisplay:10.37,2013-05-18 17:58:00,
2013-05-18 14:03:00,82.0,69.5,30.13,South,174,6.5,10.0,66,0.00,OVC,,0.00,0.0,WeatherDisplay:10.37,2013-05-18 18:03:00,
2013-05-18 14:08:00,82.0,69.5,30.13,SE,136,4.7,11.5,66,0.00,OVC,,0.00,0.0,WeatherDisplay:10.37,2013-05-18 18:08:00,
2013-05-18 14:13:00,82.2,69.3,30.12,SE,135,5.6,11.5,65,0.00,OVC,,0.00,0.0,WeatherDisplay:10.37,2013-05-18 18:13:00,
2013-05-18 14:19:00,81.8,68.4,30.12,SE,142,5.6,11.5,64,0.00,OVC,,0.00,0.0,WeatherDisplay:10.37,2013-05-18 18:19:00,
2013-05-18 14:24:00,81.4,68.9,30.12,South,175,8.3,11.5,66,0.00,OVC,,0.00,0.0,WeatherDisplay:10.37,2013-05-18 18:24:00,
2013-05-18 14:29:00,81.7,69.2,30.11,South,180,5.5,8.1,66,0.00,OVC,,0.00,0.0,WeatherDisplay:10.37,2013-05-18 18:29:00,
2013-05-18 14:34:00,81.8,68.9,30.11,South,188,6.4,11.5,65,0.00,OVC,,0.00,0.0,WeatherDisplay:10.37,2013-05-18 18:34:00,
2013-05-18 14:39:00,81.9,69.0,30.11,ESE,110,7.6,11.5,65,0.00,OVC,,0.00,0.0,WeatherDisplay:10.37,2013-05-18 18:39:00,
2013-05-18 14:44:00,81.9,69.0,30.11,East,98,5.1,8.1,65,0.00,OVC,,0.00,0.0,WeatherDisplay:10.37,2013-05-18 18:44:00,
2013-05-18 14:49:00,82.1,68.7,30.11,South,171,5.5,8.1,64,0.00,OVC,,0.00,0.0,WeatherDisplay:10.37,2013-05-18 18:49:00,
2013-05-18 14:54:00,82.5,68.6,30.11,SSW,211,3.6,9.0,63,0.00,OVC,,0.00,0.0,WeatherDisplay:10.37,2013-05-18 18:54:00,
2013-05-18 14:59:00,82.8,68.9,30.11,South,169,6.4,10.4,63,0.00,OVC,,0.00,0.0,WeatherDisplay:10.37,2013-05-18 18:59:00,
2013-05-18 15:04:00,82.7,68.8,30.11,SSE,162,3.6,10.4,63,0.00,OVC,,0.00,0.0,WeatherDisplay:10.37,2013-05-18 19:04:00,
2013-05-18 15:09:00,82.8,68.0,30.11,SSE,155,4.3,9.2,61,0.00,OVC,,0.00,0.0,WeatherDisplay:10.37,2013-05-18 19:09:00,
2013-05-18 15:14:00,82.7,68.4,30.11,ESE,112,5.6,9.2,62,0.00,OVC,,0.00,0.0,WeatherDisplay:10.37,2013-05-18 19:14:00,
2013-05-18 15:19:00,82.2,67.9,30.11,ESE,105,5.0,8.1,62,0.00,OVC,,0.00,0.0,WeatherDisplay:10.37,2013-05-18 19:19:00,
2013-05-18 15:24:00,82.3,68.0,30.11,SSE,163,5.7,11.5,62,0.00,OVC,,0.00,0.0,WeatherDisplay:10.37,2013-05-18 19:24:00,
2013-05-18 15:29:00,82.5,69.1,30.11,ENE,76,2.6,6.9,64,0.00,OVC,,0.00,0.0,WeatherDisplay:10.37,2013-05-18 19:29:00,
2013-05-18 15:34:00,82.7,68.4,30.11,South,174,5.1,10.4,62,0.00,OVC,,0.00,0.0,WeatherDisplay:10.37,2013-05-18 19:34:00,
2013-05-18 15:39:00,82.8,68.0,30.11,South,181,5.6,9.2,61,0.00,OVC,,0.00,0.0,WeatherDisplay:10.37,2013-05-18 19:39:00,
2013-05-18 15:44:00,82.6,67.8,30.11,SW,215,7.3,11.5,61,0.00,OVC,,0.00,0.0,WeatherDisplay:10.37,2013-05-18 19:44:00,
2013-05-18 15:49:00,82.3,68.0,30.11,SE,136,2.3,6.9,62,0.00,OVC,,0.00,0.0,WeatherDisplay:10.37,2013-05-18 19:49:00,
2013-05-18 15:54:00,82.3,68.4,30.11,SSW,194,3.8,9.2,63,0.00,OVC,,0.00,0.0,WeatherDisplay:10.37,2013-05-18 19:54:00,
2013-05-18 15:59:00,82.4,67.6,30.11,SSW,211,5.6,12.7,61,0.00,OVC,,0.00,0.0,WeatherDisplay:10.37,2013-05-18 19:59:00,
2013-05-18 16:04:00,82.3,68.4,30.11,South,185,2.8,6.9,63,0.00,OVC,,0.00,0.0,WeatherDisplay:10.37,2013-05-18 20:04:00,
2013-05-18 16:09:00,82.4,68.5,30.11,SE,136,5.4,10.4,63,0.00,OVC,,0.00,0.0,WeatherDisplay:10.37,2013-05-18 20:09:00,
2013-05-18 16:14:00,82.0,68.6,30.11,South,169,7.1,13.8,64,0.00,OVC,,0.00,0.0,WeatherDisplay:10.37,2013-05-18 20:14:00,
2013-05-18 16:19:00,81.6,68.2,30.11,ESE,103,6.6,12.7,64,0.00,OVC,,0.00,0.0,WeatherDisplay:10.37,2013-05-18 20:19:00,
2013-05-18 16:24:00,81.3,68.4,30.11,SE,140,4.7,11.5,65,0.00,OVC,,0.00,0.0,WeatherDisplay:10.37,2013-05-18 20:24:00,
2013-05-18 16:29:00,80.9,68.0,30.11,South,170,6.0,10.4,65,0.00,OVC,,0.00,0.0,WeatherDisplay:10.37,2013-05-18 20:29:00,
2013-05-18 16:34:00,80.4,68.0,30.11,SE,130,5.7,10.4,66,0.00,OVC,,0.00,0.0,WeatherDisplay:10.37,2013-05-18 20:34:00,
2013-05-18 16:39:00,80.0,68.1,30.11,ENE,73,5.5,8.1,67,0.00,OVC,,0.00,0.0,WeatherDisplay:10.37,2013-05-18 20:39:00,
2013-05-18 16:44:00,79.5,67.6,30.11,South,180,4.7,10.4,67,0.00,OVC,,0.00,0.0,WeatherDisplay:10.37,2013-05-18 20:44:00,
2013-05-18 16:49:00,79.2,67.7,30.11,South,171,8.8,13.8,68,0.00,OVC,,0.00,0.0,WeatherDisplay:10.37,2013-05-18 20:49:00,
2013-05-18 16:54:00,78.7,67.2,30.11,SSE,163,4.9,10.0,68,0.00,OVC,,0.00,0.0,WeatherDisplay:10.37,2013-05-18 20:54:00,
2013-05-18 16:59:00,78.5,67.5,30.11,SE,126,4.0,6.9,69,0.00,OVC,,0.00,0.0,WeatherDisplay:10.37,2013-05-18 20:59:00,
2013-05-18 17:04:00,78.4,67.8,30.11,ESE,111,4.0,12.7,70,0.00,OVC,,0.00,0.0,WeatherDisplay:10.37,2013-05-18 21:04:00,
2013-05-18 17:09:00,78.3,68.1,30.11,South,182,4.3,8.1,71,0.00,OVC,,0.00,0.0,WeatherDisplay:10.37,2013-05-18 21:09:00,
2013-05-18 17:14:00,78.4,68.2,30.11,SW,217,4.0,8.1,71,0.00,OVC,,0.00,0.0,WeatherDisplay:10.37,2013-05-18 21:14:00,
2013-05-18 17:19:00,78.4,67.8,30.11,ENE,66,4.5,9.2,70,0.00,OVC,,0.00,0.0,WeatherDisplay:10.37,2013-05-18 21:19:00,
2013-05-18 17:24:00,78.5,67.9,30.11,SSE,163,2.9,5.8,70,0.00,OVC,,0.00,0.0,WeatherDisplay:10.37,2013-05-18 21:24:00,
2013-05-18 17:29:00,78.5,67.9,30.11,SSW,192,6.1,11.0,70,0.00,OVC,,0.00,0.0,WeatherDisplay:10.37,2013-05-18 21:29:00,
2013-05-18 17:34:00,78.4,67.8,30.11,SSE,156,3.0,9.2,70,0.00,OVC,,0.00,0.0,WeatherDisplay:10.37,2013-05-18 21:34:00,
2013-05-18 17:39:00,78.3,67.7,30.11,South,180,3.7,8.1,70,0.00,OVC,,0.00,0.0,WeatherDisplay:10.37,2013-05-18 21:39:00,
2013-05-18 17:44:00,78.2,67.6,30.10,ESE,115,4.9,9.2,70,0.00,OVC,,0.00,0.0,WeatherDisplay:10.37,2013-05-18 21:44:00,
2013-05-18 17:49:00,78.2,67.6,30.10,South,182,3.9,7.0,70,0.00,OVC,,0.00,0.0,WeatherDisplay:10.37,2013-05-18 21:49:00,
2013-05-18 17:54:00,78.2,68.0,30.10,ESE,115,3.6,6.9,71,0.00,OVC,,0.00,0.0,WeatherDisplay:10.37,2013-05-18 21:54:00,
2013-05-18 17:59:00,78.0,67.8,30.11,South,184,3.1,7.0,71,0.00,OVC,,0.00,0.0,WeatherDisplay:10.37,2013-05-18 21:59:00,
2013-05-18 18:04:00,77.8,67.6,30.11,South,171,5.3,7.0,71,0.00,OVC,,0.00,0.0,WeatherDisplay:10.37,2013-05-18 22:04:00,
2013-05-18 18:09:00,77.6,67.4,30.11,South,178,5.8,11.5,71,0.00,OVC,,0.00,0.0,WeatherDisplay:10.37,2013-05-18 22:09:00,
2013-05-18 18:14:00,77.1,67.4,30.11,South,177,3.4,5.0,72,0.00,OVC,,0.00,0.0,WeatherDisplay:10.37,2013-05-18 22:14:00,
2013-05-18 18:19:00,76.9,67.6,30.11,East,98,2.6,5.8,73,0.00,OVC,,0.00,0.0,WeatherDisplay:10.37,2013-05-18 22:19:00,
2013-05-18 18:24:00,76.7,67.4,30.11,South,183,0.8,5.8,73,0.00,OVC,,0.00,0.0,WeatherDisplay:10.37,2013-05-18 22:24:00,
2013-05-18 18:29:00,76.6,67.3,30.11,South,172,2.8,6.9,73,0.00,OVC,,0.00,0.0,WeatherDisplay:10.37,2013-05-18 22:29:00,
2013-05-18 18:34:00,76.4,67.5,30.11,SSE,163,2.5,8.1,74,0.00,OVC,,0.00,0.0,WeatherDisplay:10.37,2013-05-18 22:34:00,
2013-05-18 18:39:00,76.3,67.4,30.11,SSE,161,1.8,4.6,74,0.00,OVC,,0.00,0.0,WeatherDisplay:10.37,2013-05-18 22:39:00,
2013-05-18 18:44:00,76.1,67.2,30.12,SSE,159,3.1,8.1,74,0.00,OVC,,0.00,0.0,WeatherDisplay:10.37,2013-05-18 22:44:00,
2013-05-18 18:49:00,76.0,67.1,30.12,South,169,4.0,4.0,74,0.00,OVC,,0.00,0.0,WeatherDisplay:10.37,2013-05-18 22:49:00,
2013-05-18 18:54:00,76.0,67.5,30.12,South,173,2.4,7.0,75,0.00,OVC,,0.00,0.0,WeatherDisplay:10.37,2013-05-18 22:54:00,
2013-05-18 18:59:00,75.9,67.4,30.12,SE,140,1.2,3.5,75,0.00,OVC,,0.00,0.0,WeatherDisplay:10.37,2013-05-18 22:59:00,
2013-05-18 19:04:00,75.7,67.2,30.12,SW,222,1.2,3.5,75,0.00,OVC,,0.00,0.0,WeatherDisplay:10.37,2013-05-18 23:04:00,
2013-05-18 19:09:00,75.6,67.5,30.12,SSW,209,2.4,5.8,76,0.00,OVC,,0.00,0.0,WeatherDisplay:10.37,2013-05-18 23:09:00,
2013-05-18 19:14:00,75.5,67.4,30.12,SSE,152,0.3,3.5,76,0.00,OVC,,0.00,0.0,WeatherDisplay:10.37,2013-05-18 23:14:00,
2013-05-18 19:19:00,75.4,67.7,30.12,South,185,2.3,4.0,77,0.00,OVC,,0.00,0.0,WeatherDisplay:10.37,2013-05-18 23:19:00,
2013-05-18 19:24:00,75.2,67.5,30.13,SSE,151,4.0,9.2,77,0.00,OVC,,0.00,0.0,WeatherDisplay:10.37,2013-05-18 23:24:00,
2013-05-18 19:30:00,75.1,67.4,30.13,SSW,208,0.1,1.1,77,0.00,OVC,,0.00,0.0,WeatherDisplay:10.37,2013-05-18 23:30:00,
2013-05-18 19:35:00,74.9,67.6,30.13,SSE,165,0.0,1.1,78,0.00,OVC,,0.00,0.0,WeatherDisplay:10.37,2013-05-18 23:35:00,
2013-05-18 19:40:00,74.8,67.5,30.13,ESE,122,0.0,1.0,78,0.00,OVC,,0.00,0.0,WeatherDisplay:10.37,2013-05-18 23:40:00,
2013-05-18 19:45:00,74.7,67.8,30.13,SSE,161,0.2,3.5,79,0.00,OVC,,0.00,0.0,WeatherDisplay:10.37,2013-05-18 23:45:00,
2013-05-18 19:50:00,74.5,67.6,30.13,SSE,154,0.5,1.1,79,0.00,OVC,,0.00,0.0,WeatherDisplay:10.37,2013-05-18 23:50:00,
2013-05-18 19:55:00,74.4,67.5,30.13,South,169,0.1,1.1,79,0.00,OVC,,0.00,0.0,WeatherDisplay:10.37,2013-05-18 23:55:00,
2013-05-18 20:00:00,74.2,67.6,30.13,SSE,152,0.7,3.5,80,0.00,OVC,,0.00,0.0,WeatherDisplay:10.37,2013-05-19 00:00:00,
2013-05-18 20:05:00,74.1,67.5,30.13,SSE,155,0.5,2.3,80,0.00,OVC,,0.00,0.0,WeatherDisplay:10.37,2013-05-19 00:05:00,
2013-05-18 20:10:00,74.0,67.8,30.13,South,174,0.7,2.3,81,0.00,OVC,,0.00,0.0,WeatherDisplay:10.37,2013-05-19 00:10:00,
2013-05-18 20:15:00,73.8,67.6,30.14,SSE,163,0.3,2.3,81,0.00,OVC,,0.00,0.0,WeatherDisplay:10.37,2013-05-19 00:15:00,
2013-05-18 20:20:00,73.7,67.9,30.13,South,180,0.4,2.3,82,0.00,OVC,,0.00,0.0,WeatherDisplay:10.37,2013-05-19 00:20:00,
2013-05-18 20:25:00,73.5,67.7,30.13,South,187,0.0,1.1,82,0.00,OVC,,0.00,0.0,WeatherDisplay:10.37,2013-05-19 00:25:00,
2013-05-18 20:30:00,73.4,67.6,30.13,South,178,0.0,1.1,82,0.00,OVC,,0.00,0.0,WeatherDisplay:10.37,2013-05-19 00:30:00,
2013-05-18 20:35:00,73.2,67.4,30.13,SSE,166,0.2,1.1,82,0.00,OVC,,0.00,0.0,WeatherDisplay:10.37,2013-05-19 00:35:00,
2013-05-18 20:40:00,73.1,67.6,30.13,SSE,157,0.1,1.1,83,0.00,CLR,OVC,0.00,0.0,WeatherDisplay:10.37,2013-05-19 00:40:00,
2013-05-18 20:45:00,73.0,67.5,30.13,SSE,163,0.4,2.3,83,0.00,CLR,OVC,0.00,0.0,WeatherDisplay:10.37,2013-05-19 00:45:00,
2013-05-18 20:50:00,72.9,67.4,30.13,SSE,153,0.9,2.3,83,0.00,CLR,OVC,0.00,0.0,WeatherDisplay:10.37,2013-05-19 00:50:00,
2013-05-18 20:55:00,72.8,67.7,30.13,SSE,163,0.2,2.3,84,0.00,CLR,OVC,0.00,0.0,WeatherDisplay:10.37,2013-05-19 00:55:00,
2013-05-18 21:00:00,72.7,67.6,30.13,SSE,163,0.0,0.0,84,0.00,CLR,OVC,0.00,0.0,WeatherDisplay:10.37,2013-05-19 01:00:00,
2013-05-18 21:05:00,72.6,67.5,30.13,SSE,161,1.3,3.5,84,0.00,CLR,OVC,0.00,0.0,WeatherDisplay:10.37,2013-05-19 01:05:00,
2013-05-18 21:10:00,72.5,67.7,30.13,SSE,165,0.5,2.3,85,0.00,CLR,OVC,0.00,0.0,WeatherDisplay:10.37,2013-05-19 01:10:00,
2013-05-18 21:15:00,72.5,67.7,30.13,SSE,167,0.8,3.5,85,0.00,CLR,OVC,0.00,0.0,WeatherDisplay:10.37,2013-05-19 01:15:00,
2013-05-18 21:20:00,72.4,68.0,30.13,South,176,0.0,1.1,86,0.00,CLR,OVC,0.00,0.0,WeatherDisplay:10.37,2013-05-19 01:20:00,
2013-05-18 21:25:00,72.3,67.9,30.13,ESE,121,1.3,3.5,86,0.00,CLR,OVC,0.00,0.0,WeatherDisplay:10.37,2013-05-19 01:25:00,
2013-05-18 21:30:00,72.2,67.8,30.13,South,174,0.2,1.1,86,0.00,CLR,OVC,0.00,0.0,WeatherDisplay:10.37,2013-05-19 01:30:00,
2013-05-18 21:35:00,72.2,67.8,30.14,South,175,0.2,2.3,86,0.00,CLR,OVC,0.00,0.0,WeatherDisplay:10.37,2013-05-19 01:35:00,
2013-05-18 21:40:00,72.1,68.0,30.14,South,175,1.0,3.5,87,0.00,CLR,OVC,0.00,0.0,WeatherDisplay:10.37,2013-05-19 01:40:00,
2013-05-18 21:45:00,72.1,68.0,30.14,South,175,0.0,1.0,87,0.00,CLR,OVC,0.00,0.0,WeatherDisplay:10.37,2013-05-19 01:45:00,
2013-05-18 21:50:00,72.0,68.2,30.14,South,169,0.7,2.3,88,0.00,CLR,OVC,0.00,0.0,WeatherDisplay:10.37,2013-05-19 01:50:00,
2013-05-18 21:55:00,71.9,68.2,30.14,SSE,155,0.2,2.3,88,0.00,CLR,OVC,0.00,0.0,WeatherDisplay:10.37,2013-05-19 01:55:00,
2013-05-18 22:00:00,71.9,68.2,30.14,SSE,157,0.0,0.0,88,0.00,CLR,OVC,0.00,0.0,WeatherDisplay:10.37,2013-05-19 02:00:00,
2013-05-18 22:05:00,71.8,68.4,30.14,SSE,166,1.5,3.5,89,0.00,CLR,OVC,0.00,0.0,WeatherDisplay:10.37,2013-05-19 02:05:00,
2013-05-18 22:10:00,71.8,68.4,30.14,SE,125,0.5,3.5,89,0.00,CLR,OVC,0.00,0.0,WeatherDisplay:10.37,2013-05-19 02:10:00,
2013-05-18 22:25:00,71.6,68.2,30.14,South,184,0.0,0.0,89,0.00,CLR,OVC,0.00,0.0,WeatherDisplay:10.37,2013-05-19 02:25:00,
2013-05-18 22:30:00,71.5,68.1,30.14,South,182,0.0,0.0,89,0.00,CLR,OVC,0.00,0.0,WeatherDisplay:10.37,2013-05-19 02:30:00,
2013-05-18 22:35:00,71.4,68.0,30.14,South,182,0.5,2.3,89,0.00,CLR,OVC,0.00,0.0,WeatherDisplay:10.37,2013-05-19 02:35:00,
2013-05-18 22:40:00,71.3,67.9,30.14,South,182,0.0,1.1,89,0.00,CLR,OVC,0.00,0.0,WeatherDisplay:10.37,2013-05-19 02:40:00,
2013-05-18 22:45:00,71.3,68.2,30.14,South,179,0.6,2.3,90,0.00,CLR,OVC,0.00,0.0,WeatherDisplay:10.37,2013-05-19 02:45:00,
2013-05-18 22:50:00,71.2,68.1,30.14,SSE,159,0.0,1.1,90,0.00,CLR,OVC,0.00,0.0,WeatherDisplay:10.37,2013-05-19 02:50:00,
2013-05-18 22:55:00,71.2,68.1,30.14,SSE,158,0.0,2.3,90,0.00,CLR,OVC,0.00,0.0,WeatherDisplay:10.37,2013-05-19 02:55:00,
2013-05-18 23:00:00,71.1,68.0,30.14,SSE,161,0.1,1.0,90,0.00,CLR,OVC,0.00,0.0,WeatherDisplay:10.37,2013-05-19 03:00:00,
2013-05-18 23:05:00,71.1,68.0,30.14,SSE,167,0.2,1.1,90,0.00,CLR,OVC,0.00,0.0,WeatherDisplay:10.37,2013-05-19 03:05:00,
2013-05-18 23:10:00,71.0,67.9,30.14,SSE,166,0.2,1.1,90,0.00,CLR,OVC,0.00,0.0,WeatherDisplay:10.37,2013-05-19 03:10:00,
2013-05-18 23:15:00,71.0,67.9,30.14,SSE,161,0.0,1.1,90,0.00,CLR,OVC,0.00,0.0,WeatherDisplay:10.37,2013-05-19 03:15:00,
2013-05-18 23:20:00,71.0,67.9,30.14,SSE,159,0.0,0.0,90,0.00,CLR,OVC,0.00,0.0,WeatherDisplay:10.37,2013-05-19 03:20:00,
2013-05-18 23:25:00,70.9,67.8,30.14,SSE,147,0.0,0.0,90,0.00,CLR,OVC,0.00,0.0,WeatherDisplay:10.37,2013-05-19 03:25:00,
2013-05-18 23:30:00,70.9,67.8,30.14,SSE,149,1.1,1.1,90,0.00,CLR,OVC,0.00,0.0,WeatherDisplay:10.37,2013-05-19 03:30:00,
2013-05-18 23:35:00,70.9,67.8,30.14,SSE,149,0.1,1.1,90,0.00,CLR,OVC,0.00,0.0,WeatherDisplay:10.37,2013-05-19 03:35:00,
2013-05-18 23:40:00,70.9,67.8,30.14,SSE,148,0.2,1.1,90,0.00,CLR,OVC,0.00,0.0,WeatherDisplay:10.37,2013-05-19 03:40:00,
2013-05-18 23:45:00,70.9,68.1,30.14,SSE,147,0.0,0.0,91,0.00,CLR,OVC,0.00,0.0,WeatherDisplay:10.37,2013-05-19 03:45:00,
2013-05-18 23:50:00,70.9,68.1,30.14,SSE,149,0.7,2.3,91,0.00,CLR,OVC,0.00,0.0,WeatherDisplay:10.37,2013-05-19 03:50:00,
2013-05-18 23:55:00,70.8,67.7,30.14,SSE,149,0.3,1.1,90,0.00,CLR,OVC,0.00,0.0,WeatherDisplay:10.37,2013-05-19 03:55:00,